EW4496 Weather Reports


time (UTC)temp
C
wind
direction
speed
KPH
gust
KPH
rain 1hr
cm
rain 24hr
cm
rain mn
cm
humidity
%
barometer
mb
20260906070046 17 192 0.0 1.6 0.00 0.00 0.00 53 1012.7
20260906064611 17 347 0.0 0.0 0.00 0.00 0.00 52 1012.8
20260906063109 17 347 0.0 0.0 0.00 0.00 0.00 52 1012.8
20260906061506 18 347 0.0 0.0 0.00 0.00 0.00 53 1012.8
20260906060009 18 347 0.0 0.0 0.00 0.00 0.00 51 1012.8
20260906054512 19 347 0.0 0.0 0.00 0.00 0.00 46 1012.8
20260906053009 20 357 0.0 9.7 0.00 0.00 0.00 44 1012.8
20260906051518 20 330 1.6 6.4 0.00 0.00 0.00 45 1012.8
20260906050024 20 338 0.0 8.0 0.00 0.00 0.00 45 1012.7
20260906044524 21 308 1.6 11.3 0.00 0.00 0.00 46 1012.6
20260906043038 21 352 0.0 6.4 0.00 0.00 0.00 46 1012.6
20260906041524 21 330 0.0 6.4 0.00 0.00 0.00 46 1012.4
20260906040052 22 341 0.0 6.4 0.00 0.00 0.00 46 1012.4
20260906034539 22 339 0.0 1.6 0.00 0.00 0.00 46 1012.3
20260906033044 22 345 0.0 4.8 0.00 0.00 0.00 44 1012.2
20260906031539 23 264 0.0 4.8 0.00 0.00 0.00 43 1012.0
20260906030104 23 331 0.0 3.2 0.00 0.00 0.00 43 1011.9
20260906024553 24 331 0.0 1.6 0.00 0.00 0.00 39 1011.7
20260906023113 25 338 0.0 6.4 0.00 0.00 0.00 33 1011.7
20260906021554 26 333 1.6 6.4 0.00 0.00 0.00 30 1011.8
20260906020054 27 316 0.0 4.8 0.00 0.00 0.00 30 1011.9
20260906014615 27 302 0.0 9.7 0.00 0.00 0.00 29 1011.9
20260906013057 27 310 0.0 8.0 0.00 0.00 0.00 29 1011.8
20260906011556 27 319 0.0 8.0 0.00 0.00 0.00 31 1011.8
20260906010053 27 283 0.0 6.4 0.00 0.00 0.00 31 1011.9
20260906004607 27 8 3.2 9.7 0.00 0.00 0.00 31 1011.9
20260906003055 28 323 4.8 17.7 0.00 0.00 0.00 31 1011.9
20260906001552 28 335 1.6 8.0 0.00 0.00 0.00 31 1011.8
20260906000105 29 45 3.2 14.5 0.00 0.00 0.00 30 1011.8
20260905234557 29 347 0.0 9.7 0.00 0.00 0.00 30 1011.9
20260905233056 29 326 0.0 3.2 0.00 0.00 0.00 30 1011.9
20260905231556 29 212 0.0 12.9 0.00 0.00 0.00 29 1012.0
20260905230053 28 281 1.6 12.9 0.00 0.00 0.00 30 1012.2
20260905224604 28 340 1.6 11.3 0.00 0.00 0.00 30 1012.3
20260905223052 28 99 1.6 11.3 0.00 0.00 0.00 31 1012.3
20260905221608 27 23 1.6 11.3 0.00 0.00 0.00 30 1012.5
20260905220010 28 326 0.0 9.7 0.00 0.00 0.00 32 1012.6
20260905214524 27 336 0.0 11.3 0.00 0.00 0.00 34 1012.7
20260905213022 27 349 1.6 9.7 0.00 0.00 0.00 33 1012.8
20260905211524 27 356 1.6 11.3 0.00 0.00 0.00 34 1013.0
20260905210022 26 39 0.0 9.7 0.00 0.00 0.00 36 1013.1
20260905204522 26 24 0.0 6.4 0.00 0.00 0.00 33 1013.2
20260905203042 26 17 1.6 6.4 0.00 0.00 0.00 37 1013.3
20260905201543 26 253 1.6 9.7 0.00 0.00 0.00 38 1013.4
20260905200157 25 293 1.6 8.0 0.00 0.00 0.00 39 1013.5
20260905194542 25 358 1.6 9.7 0.00 0.00 0.00 40 1013.7
20260905193043 25 245 0.0 11.3 0.00 0.00 0.00 44 1013.7
20260905191545 25 228 1.6 9.7 0.00 0.00 0.00 45 1013.9
20260905190050 25 4 0.0 11.3 0.00 0.00 0.00 45 1014.0
20260905184612 24 253 3.2 11.3 0.00 0.00 0.00 48 1014.0
20260905183128 23 341 0.0 4.8 0.00 0.00 0.00 47 1014.0
20260905181540 23 352 0.0 8.0 0.00 0.00 0.00 52 1014.0
20260905180041 23 349 1.6 8.0 0.00 0.00 0.00 50 1013.9
20260905174541 22 264 0.0 8.0 0.00 0.00 0.00 55 1014.0
20260905173042 21 203 0.0 6.4 0.00 0.00 0.00 57 1013.9
20260905171551 21 347 0.0 6.4 0.00 0.00 0.00 59 1013.9
20260905170055 20 332 0.0 4.8 0.00 0.03 0.00 62 1013.9
20260905164611 20 274 0.0 1.6 0.00 0.03 0.00 63 1013.8
20260905163113 18 238 0.0 6.4 0.00 0.03 0.00 66 1013.9
20260905161515 18 309 0.0 3.2 0.00 0.03 0.00 68 1013.9
20260905160041 18 332 0.0 3.2 0.00 0.03 0.00 71 1013.9
20260905154542 17 330 0.0 1.6 0.00 0.03 0.00 72 1013.9
20260905153053 17 316 0.0 3.2 0.00 0.03 0.00 74 1013.8
20260905151543 15 241 0.0 0.0 0.00 0.03 0.00 77 1013.8
20260905150055 14 233 0.0 1.6 0.00 0.03 0.00 80 1013.8
20260905144555 13 278 0.0 0.0 0.00 0.03 0.00 82 1013.7
20260905143055 12 278 0.0 1.6 0.00 0.03 0.00 84 1013.7
20260905141557 11 279 0.0 0.0 0.00 0.03 0.00 86 1013.6
20260905140110 11 279 0.0 0.0 0.00 0.03 0.00 86 1013.5
20260905134610 11 280 0.0 0.0 0.00 0.03 0.00 86 1013.5
20260905133109 11 280 0.0 0.0 0.00 0.03 0.00 86 1013.4
20260905131612 11 200 0.0 1.6 0.00 0.03 0.00 87 1013.3
20260905130121 11 203 0.0 1.6 0.00 0.03 0.00 86 1013.3
20260905124610 11 203 0.0 1.6 0.00 0.03 0.00 86 1013.2
20260905123110 11 228 0.0 1.6 0.00 0.03 0.00 86 1013.2
20260905121609 11 228 0.0 0.0 0.00 0.03 0.00 85 1013.3
20260905120106 11 229 0.0 3.2 0.00 0.03 0.00 85 1013.3
20260905114555 11 231 0.0 3.2 0.00 0.03 0.00 85 1013.2
20260905113054 11 235 0.0 0.0 0.00 0.03 0.00 85 1013.2
20260905111609 11 236 0.0 0.0 0.00 0.03 0.00 85 1013.4
20260905110058 11 236 0.0 0.0 0.00 0.03 0.00 84 1013.5
20260905104554 11 237 0.0 0.0 0.00 0.03 0.00 83 1013.5
20260905103055 11 247 0.0 0.0 0.00 0.03 0.00 83 1013.6
20260905101554 12 266 0.0 0.0 0.00 0.03 0.00 83 1013.6
20260905100018 12 266 0.0 0.0 0.00 0.03 0.00 82 1013.7
20260905094539 12 266 0.0 0.0 0.00 0.03 0.00 81 1013.6
20260905093041 13 266 0.0 0.0 0.00 0.03 0.00 81 1013.7
20260905091539 13 266 0.0 0.0 0.00 0.03 0.00 81 1013.6
20260905090039 13 267 0.0 0.0 0.00 0.03 0.00 81 1013.6
20260905084538 13 287 0.0 0.0 0.00 0.03 0.00 80 1013.7
20260905083038 13 290 0.0 0.0 0.00 0.03 0.00 78 1013.7
20260905081539 13 243 0.0 0.0 0.00 0.03 0.00 77 1013.7
20260905080040 14 240 0.0 0.0 0.00 0.05 0.00 76 1013.6
20260905074545 14 285 0.0 1.6 0.00 0.05 0.00 76 1013.5
20260905073055 15 320 0.0 0.0 0.00 0.05 0.00 75 1013.4
20260905071544 15 214 0.0 3.2 0.00 0.05 0.00 74 1013.4